Regional Weather Roundup
Issued by NWS

Home | Current Version | Previous Version | Text Only | Print | Product List | Glossary On
Versions: 1 2 3 4 5 6 7 8 9 10 11 12 13 14 15 16 17 18 19 20 21 22 23 24 25 26 27 28 29 30 31 32 33 34 35 36 37 38 39 40 41 42 43 44 45 46 47 48 49 50
914
ASUS43 KMPX 272210
RWRMN
WEATHER ROUNDUP FOR MINNESOTA
NATIONAL WEATHER SERVICE TWIN CITIES/CHANHASSEN MN
500 PM CDT WED JUL 27 2016


NOTE: "FAIR" INDICATES FEW OR NO CLOUDS BELOW 12,000 FEET WITH NO
SIGNIFICANT WEATHER AND/OR OBSTRUCTIONS TO VISIBILITY. N/A MEANS
CURRENT SKY AND/OR WEATHER CONDITIONS ARE NOT AVAILABLE.

MNZ060>063-068>070-272300-
   Twin Cities Metro

CITY           SKY/WX    TMP DP  RH WIND       PRES   REMARKS
TWIN CITIES    CLOUDY    75  68  78 N10       29.94R
ST PAUL        CLOUDY    70  66  87 E6        29.95R
CRYSTAL        CLOUDY    72  65  78 N6        29.93S
BLAINE         CLOUDY    73  72  94 N5        29.94F
LAKEVILLE      CLOUDY    68  68 100 N5        29.95R
EDEN PRAIRIE   PTSUNNY   73  67  81 N6        29.93S
LAKEVILLE      CLOUDY    68  68 100 N5        29.95R
SOUTH ST PAUL  CLOUDY    70  67  91 E5        29.95R
LAKE ELMO      FAIR      68  66  94 SE5       29.96R
$$
MNZ001>005-007-008-013>017-022>024-027-028-272300-
   Northwest Minnesota

CITY           SKY/WX    TMP DP  RH WIND       PRES   REMARKS
BEMIDJI        CLOUDY    70  63  78 NE6       30.05R
HALLOCK        SUNNY     75  59  57 N16       30.06F
ROSEAU         SUNNY     77  63  61 NE7       30.05F
WARROAD        SUNNY     75  63  64 NE12      30.07S
THIEF RVR FALL PTSUNNY   77  60  55 N13       30.04F
CROOKSTON      SUNNY     77  59  53 N13       30.03F
FOSSTON        PTSUNNY   73  63  68 N6        30.03S
DETROIT LAKES  SUNNY     75  59  57 N13       30.04S
MOORHEAD       SUNNY     75  57  53 N15       30.03S
PARK RAPIDS    CLOUDY    75  61  61 NE9       30.02S
MAHNOMEN       FAIR      77  57  51 NW9       30.02F
$$
MNZ006-009>011-018-025>026-272300-
   North Central Minnesota

CITY           SKY/WX    TMP DP  RH WIND       PRES   REMARKS
BAUDETTE       MOSUNNY   77  57  50 N12       30.05R
FLAG ISLAND    SUNNY     72  55  56 NE13      30.08R
INTL FALLS     SUNNY     77  56  48 NE12      30.04S
WASKISH        CLOUDY    73  63  68 CALM      30.04R
BIG FORK       MOSUNNY   73  63  68 E3        30.04F
LONGVILLE      CLOUDY    72  63  73 N6        30.03S
GRAND RAPIDS   CLOUDY    70  62  76 VRB6      30.05R
CRANE LAKE     MOSUNNY   73  57  56 SE2       30.05S
ORR            CLOUDY    73  55  53 CALM      30.02S
COOK           PTSUNNY   72  61  68 NE3       30.04S
WALKER         FAIR      71  62  72 NE6       30.03S
$$
MNZ012-019>021-037-272300-
   Northeast Minnesota

CITY           SKY/WX    TMP DP  RH WIND       PRES   REMARKS
DULUTH         CLOUDY    63  58  83 E10       30.04S
ELY            CLOUDY    72  57  60 E6        30.04S
HIBBING        PTSUNNY   70  61  73 NE6       30.04R
EVELETH        PTSUNNY   73  63  70 NE3       30.04S
DULUTH HARBOR  CLOUDY    63  61  94 NE16      30.03S THUNDER
TWO HARBORS    CLOUDY    66  61  82 E5        30.03R
SILVER BAY     CLOUDY    64  61  88 NE5       30.02S
GRAND MARAIS     N/A     65  54  67 CALM      30.03F
G MARAIS ARPRT CLOUDY    61  52  72 CALM      30.07F
$$
MNZ029>031-032-039>041-046>048-054>057-064-272300-
   West Central Minnesota

CITY           SKY/WX    TMP DP  RH WIND       PRES   REMARKS
FERGUS FALLS   SUNNY     77  59  53 N15G22    30.03R
WHEATON        SUNNY     81  61  50 N14G21    30.03S
MORRIS         MOSUNNY   81  63  54 N14       30.00S
ALEXANDRIA     PTSUNNY   76  61  59 N15       30.03R
ELBOW LAKE     FAIR      77  60  55 NW13G18   30.01S
WADENA         MOSUNNY   75  64  69 N9        30.01S
GLENWOOD       MOSUNNY   77  64  65 N12G17    30.01R
APPLETON       SUNNY     81  63  54 N14       29.99S
BENSON         MOSUNNY   79  61  53 NE13      29.99S
ORTONVILLE     SUNNY     79  61  53 N14G20    30.01S
MADISON        MOSUNNY   79  63  57 N12G17    30.00S
WILLMAR        FAIR      81  66  61 N15       29.99R
$$
MNZ033>034-036-042>043-049>051-058-059-272300-
   Central Minnesota

CITY           SKY/WX    TMP DP  RH WIND       PRES   REMARKS
ST CLOUD       MOSUNNY   77  66  68 NW15      29.96S
SAUK CENTRE    MOCLDY    76  64  67 N12G20    29.99S
PAYNESVILLE    PTSUNNY   75  64  68 N10       29.99R
AITKIN         CLOUDY    72  61  68 N7        30.01R
PINE RIVER     MOSUNNY   73  64  73 N9        30.04S
BRAINERD       PTSUNNY   69  65  86 NE10      30.02R
STAPLES        PTSUNNY   75  63  64 N6        30.01S
LONG PRAIRIE   FAIR      73  61  64 N9        30.01S
LITTLE FALLS   PTSUNNY   73  61  64 NW6       30.00R
LITCHFIELD     PTSUNNY   75  68  78 N13       29.98R
BUFFALO        PTSUNNY   74  65  74 N5        29.97S
MAPLE LAKE     MOSUNNY   76  68  76 NE7       29.97S
HUTCHINSON     CLOUDY    74  71  90 N7        29.98R
$$
MNZ037-044-045-052-053-272300-
   East Central Minnesota

CITY           SKY/WX    TMP DP  RH WIND       PRES   REMARKS
PRINCETON      CLOUDY    72  66  83 N12       29.97S
MORA           CLOUDY    64  63  94 N5        30.00S
CAMBRIDGE      CLOUDY    70  63  78 N7        29.95S
RUSH CITY      RAIN      68  66  93 N8        29.95F
MOOSE LAKE     CLOUDY    63  59  88 E7        29.99S
HINCKLEY       CLOUDY    66  64  94 N8        29.98F
CLOQUET        CLOUDY    63  55  77 E15       30.03R
MCGREGOR       CLOUDY    68  61  77 E6        30.03R
$$
MNZ071>073-080-081-089-090-097-098-272300-
   Southwest Minnesota

CITY           SKY/WX    TMP DP  RH WIND       PRES   REMARKS
MONTEVIDEO     MOSUNNY   79  64  61 NE16      30.00F
GRANITE FALLS  MOSUNNY   82  68  61 NW14G20   29.99F
CANBY          MOSUNNY   80  64  59 N10G20    30.01F
MARSHALL       MOSUNNY   79  67  66 N14       29.98F
REDWOOD FALLS  MOSUNNY   80  65  59 N15       29.96S
OLIVIA         MOSUNNY   77  64  65 NW13      29.96F
PIPESTONE      MOSUNNY   81  61  50 NE13G18   30.00F
WINDOM         MOSUNNY   79  66  65 NW10      29.98S
WORTHINGTON    MOSUNNY   80  67  64 NW12      30.00S
JACKSON        SUNNY     81  63  54 NW12      29.98S
TRACY          SUNNY     80  67  64 N9        29.99S
SLAYTON        MOSUNNY   81  64  57 NW10      30.01S HAZE
$$
MNZ065>067-074>077-082>085-091>093-272300-
   South Central Minnesota

CITY           SKY/WX    TMP DP  RH WIND       PRES   REMARKS
MANKATO        CLOUDY    81  66  61 NW17      29.93S
NEW ULM        SUNNY     81  64  57 NW15      29.94S
ST JAMES       PTSUNNY   75  64  69 W9        29.95S
FAIRMONT       PTSUNNY   81  68  65 NW8       29.94S
GLENCOE        CLOUDY    72  70  95 N6        29.96R
FARIBAULT      CLOUDY    72  72 100 SW8       29.93F
OWATONNA       CLOUDY    77  68  73 W25G32    29.94S
WASECA         CLOUDY    72  68  88 S3        29.93F
ALBERT LEA     SUNNY     79  66  65 S9        29.91F
$$
MNZ078>079-086>088-094>096-272300-
   Southeast Minnesota

CITY           SKY/WX    TMP DP  RH WIND       PRES   REMARKS
ROCHESTER      MOSUNNY   80  67  64 S12       29.93F
RED WING       CLOUDY    81  68  65 SW5       29.91S THUNDER
STANTON        CLOUDY    73  68  83 SW7       29.93R
DODGE CENTER   SUNNY     79  64  61 S13       29.93F
WINONA         MOSUNNY   81  66  61 SW6       29.92F
AUSTIN         SUNNY     81  64  57 SW13      29.93F
PRESTON        MOSUNNY   80  65  61 SW8       29.96S
$$
ABBREVIATIONS USED IN REMARKS
   TC - TEMPERATURES IN CELSIUS
  WCI - WIND CHILL INDEX
   HX - HEAT INDEX
  VSB - VISIBILITY
$$




USA.gov is the U.S. government's official web portal to all federal, state and local government web resources and services.